EW1134 Weather Reports


Display with metric or nautical units.
time (UTC)temp
F
wind
direction
speed
MPH
gust
MPH
rain 1hr
in
rain 24hr
in
rain mn
in
humidity
%
barometer
mb
20260505195504 58 208 0.0 4.0 0.00 0.00 0.00 62 1015.8
20260505194505 58 219 1.0 3.0 0.00 0.00 0.00 61 1015.8
20260505194003 58 220 2.0 4.0 0.00 0.00 0.00 60 1015.9
20260505193504 59 225 3.0 5.0 0.00 0.00 0.00 61 1015.8
20260505193004 59 225 3.0 5.0 0.00 0.00 0.00 61 1015.7
20260505192004 60 229 1.0 4.0 0.00 0.00 0.00 62 1015.7
20260505191504 60 232 1.0 4.0 0.00 0.00 0.00 62 1015.7
20260505191004 61 232 1.0 4.0 0.00 0.00 0.00 61 1015.7
20260505190504 61 262 1.0 4.0 0.00 0.00 0.00 60 1015.6
20260505185503 61 225 3.0 7.0 0.00 0.00 0.00 58 1015.8
20260505185003 62 225 2.0 7.0 0.00 0.00 0.00 58 1015.5
20260505184503 62 225 0.0 6.0 0.00 0.00 0.00 59 1015.5
20260505183004 63 355 0.0 2.0 0.00 0.00 0.00 55 1015.5
20260505182004 64 218 0.0 3.0 0.00 0.00 0.00 52 1015.4
20260505181504 64 332 0.0 4.0 0.00 0.00 0.00 53 1015.2
20260505181003 65 353 1.0 4.0 0.00 0.00 0.00 51 1015.3
20260505180503 65 15 1.0 4.0 0.00 0.00 0.00 48 1015.1
20260505180004 66 49 1.0 4.0 0.00 0.00 0.00 46 1015.2
20260505175504 67 147 0.0 2.0 0.00 0.00 0.00 45 1015.1
20260505175003 67 282 1.0 3.0 0.00 0.00 0.00 42 1014.8
20260505174003 68 157 0.0 4.0 0.00 0.00 0.00 42 1014.9
20260505173004 69 82 0.0 3.0 0.00 0.00 0.00 39 1015.0
20260505171503 71 29 1.0 4.0 0.00 0.00 0.00 30 1014.9
20260505171004 72 45 0.0 3.0 0.00 0.00 0.00 27 1014.7
20260505165503 73 63 2.0 5.0 0.00 0.00 0.00 21 1014.7
20260505163503 74 48 2.0 4.0 0.00 0.00 0.00 16 1014.9
20260505163004 74 44 2.0 5.0 0.00 0.00 0.00 15 1015.0
20260505162504 75 37 3.0 6.0 0.00 0.00 0.00 15 1015.0
20260505162003 75 44 4.0 9.0 0.00 0.00 0.00 15 1014.8
20260505161504 76 28 4.0 10.0 0.00 0.00 0.00 14 1014.9
20260505161004 76 355 3.0 10.0 0.00 0.00 0.00 14 1014.8
20260505160503 76 352 2.0 5.0 0.00 0.00 0.00 12 1014.7
20260505153004 77 359 4.0 10.0 0.00 0.00 0.00 14 1015.1
20260505152504 77 18 5.0 13.0 0.00 0.00 0.00 14 1014.8
20260505152003 78 30 5.0 13.0 0.00 0.00 0.00 12 1014.7
20260505151504 78 12 5.0 11.0 0.00 0.00 0.00 12 1015.0
20260505151004 78 12 4.0 11.0 0.00 0.00 0.00 13 1015.0
20260505125003 80 327 7.0 14.0 0.00 0.00 0.00 12 1015.6
20260505124504 80 326 7.0 19.0 0.00 0.00 0.00 12 1015.5
20260505124004 81 315 5.0 19.0 0.00 0.00 0.00 12 1015.7
20260505123004 81 293 5.0 14.0 0.00 0.00 0.00 12 1015.6
20260505122003 81 303 5.0 14.0 0.00 0.00 0.00 11 1015.7
20260505121504 82 306 3.0 13.0 0.00 0.00 0.00 13 1016.0
20260505120504 81 291 5.0 11.0 0.00 0.00 0.00 12 1015.9
20260505120005 81 284 3.0 8.0 0.00 0.00 0.00 13 1016.0
20260505115503 81 265 3.0 11.0 0.00 0.00 0.00 14 1015.9
20260505115004 80 269 4.0 11.0 0.00 0.00 0.00 12 1016.0
20260505114003 79 33 4.0 13.0 0.00 0.00 0.00 15 1016.0
20260505113504 79 11 3.0 9.0 0.00 0.00 0.00 15 1016.1
20260505112504 79 350 6.0 14.0 0.00 0.00 0.00 16 1016.2
20260505112003 80 357 4.0 14.0 0.00 0.00 0.00 15 1016.1
20260505111504 81 299 2.0 7.0 0.00 0.00 0.00 17 1016.1
20260505111004 80 260 2.0 7.0 0.00 0.00 0.00 19 1016.3
20260505110504 79 270 3.0 9.0 0.00 0.00 0.00 20 1016.2
20260505102004 77 123 4.0 11.0 0.00 0.00 0.00 24 1016.5
20260505101003 77 18 5.0 11.0 0.00 0.00 0.00 24 1016.5
20260505100504 76 27 5.0 8.0 0.00 0.00 0.00 27 1016.6
20260505100004 76 40 5.0 10.0 0.00 0.00 0.00 27 1016.5
20260505095503 76 29 5.0 10.0 0.00 0.00 0.00 27 1016.8
20260505094504 76 15 5.0 10.0 0.00 0.00 0.00 29 1016.9
20260505094004 75 19 4.0 11.0 0.00 0.00 0.00 30 1017.1
20260505093004 75 5 5.0 12.0 0.00 0.00 0.00 30 1016.9
20260505092004 74 29 5.0 12.0 0.00 0.00 0.00 32 1016.9
20260505091504 74 29 5.0 12.0 0.00 0.00 0.00 30 1017.1
20260505090503 74 359 4.0 11.0 0.00 0.00 0.00 31 1017.1
20260505090004 73 354 4.0 9.0 0.00 0.00 0.00 33 1017.1
20260505085503 73 7 5.0 10.0 0.00 0.00 0.00 34 1017.1
20260505085004 72 9 5.0 10.0 0.00 0.00 0.00 34 1017.0
20260505084504 72 6 4.0 8.0 0.00 0.00 0.00 35 1017.2
20260505084003 72 19 4.0 8.0 0.00 0.00 0.00 36 1017.1
20260505083504 72 21 3.0 7.0 0.00 0.00 0.00 36 1017.2
20260505083004 72 11 3.0 7.0 0.00 0.00 0.00 37 1017.2
20260505082504 72 2 3.0 7.0 0.00 0.00 0.00 38 1017.4
20260505082004 71 13 3.0 6.0 0.00 0.00 0.00 39 1017.2
20260505081504 71 348 3.0 7.0 0.00 0.00 0.00 39 1017.3
20260505081004 71 4 4.0 7.0 0.00 0.00 0.00 39 1017.3
20260505080504 70 45 4.0 8.0 0.00 0.00 0.00 39 1017.2
20260505080004 71 44 4.0 8.0 0.00 0.00 0.00 38 1017.4
20260505075504 71 41 4.0 7.0 0.00 0.00 0.00 39 1017.3
20260505075003 71 35 4.0 7.0 0.00 0.00 0.00 39 1017.3
20260505074504 71 10 3.0 7.0 0.00 0.00 0.00 38 1017.4
20260505073504 72 32 3.0 6.0 0.00 0.00 0.00 40 1017.3
20260505073004 72 15 2.0 6.0 0.00 0.00 0.00 39 1017.3
20260505072504 72 4 1.0 6.0 0.00 0.00 0.00 40 1017.4
20260505072003 72 314 2.0 5.0 0.00 0.00 0.00 42 1017.4
20260505071504 71 226 1.0 5.0 0.00 0.00 0.00 43 1017.4
20260505071003 71 251 1.0 4.0 0.00 0.00 0.00 43 1017.3
20260505070501 70 291 0.0 4.0 0.00 0.00 0.00 45 1017.6
20260505070002 69 281 1.0 5.0 0.00 0.00 0.00 46 1017.3
20260505065501 69 267 1.0 5.0 0.00 0.00 0.00 46 1017.4
20260505065002 68 303 1.0 4.0 0.00 0.00 0.00 46 1017.4
20260505064502 68 327 1.0 4.0 0.00 0.00 0.00 48 1017.6
20260505064002 68 322 1.0 4.0 0.00 0.00 0.00 49 1017.2
20260505063502 67 331 1.0 4.0 0.00 0.00 0.00 52 1017.3
20260505063002 66 349 1.0 4.0 0.00 0.00 0.00 53 1017.4
20260505062502 65 355 1.0 4.0 0.00 0.00 0.00 55 1017.4
20260505061502 63 30 2.0 4.0 0.00 0.00 0.00 59 1017.5
20260505061002 63 12 2.0 5.0 0.00 0.00 0.00 59 1017.3
20260505060502 62 297 1.0 6.0 0.00 0.00 0.00 63 1017.5
20260505060002 62 297 2.0 6.0 0.00 0.00 0.00 64 1017.4
20260505055501 61 302 2.0 6.0 0.00 0.00 0.00 66 1017.5
20260505055001 60 277 1.0 5.0 0.00 0.00 0.00 67 1017.5
20260505054002 59 272 2.0 5.0 0.00 0.00 0.00 68 1017.4
20260505053502 58 268 1.0 5.0 0.00 0.00 0.00 69 1017.3
20260505053002 58 268 1.0 5.0 0.00 0.00 0.00 70 1017.5
20260505052502 57 263 1.0 5.0 0.00 0.00 0.00 71 1017.5
20260505052002 56 259 0.0 4.0 0.00 0.00 0.00 71 1017.4
20260505050503 54 268 2.0 6.0 0.00 0.00 0.00 73 1017.5
20260505041504 50 256 1.0 7.0 0.00 0.00 0.00 78 1017.2
20260505041004 49 248 1.0 7.0 0.00 0.00 0.00 78 1017.1
20260505040503 48 268 1.0 4.0 0.00 0.00 0.00 78 1017.2
20260505035503 47 290 1.0 4.0 0.00 0.00 0.00 77 1017.2
20260505035003 46 280 1.0 4.0 0.00 0.00 0.00 76 1017.2
20260505034504 46 278 1.0 4.0 0.00 0.00 0.00 76 1017.2
20260505034003 46 267 1.0 4.0 0.00 0.00 0.00 75 1017.0
20260505033004 46 247 1.0 4.0 0.00 0.00 0.00 74 1017.1
20260505032503 45 252 1.0 4.0 0.00 0.00 0.00 73 1017.1
20260505032003 45 292 1.0 4.0 0.00 0.00 0.00 72 1017.2
20260505031504 45 275 1.0 4.0 0.00 0.00 0.00 71 1017.1
20260505030503 45 231 0.0 2.0 0.00 0.00 0.00 69 1017.1
20260505025003 45 181 0.0 1.0 0.00 0.00 0.00 66 1017.0
20260505024504 45 181 0.0 2.0 0.00 0.00 0.00 66 1017.0
20260505024003 46 147 0.0 2.0 0.00 0.00 0.00 66 1017.1
20260505023503 46 135 0.0 2.0 0.00 0.00 0.00 66 1017.1
20260505023004 46 314 0.0 1.0 0.00 0.00 0.00 65 1017.3
20260505022504 46 271 0.0 4.0 0.00 0.00 0.00 66 1017.2
20260505022003 47 245 0.0 4.0 0.00 0.00 0.00 66 1017.1
20260505021504 46 226 1.0 3.0 0.00 0.00 0.00 66 1017.1
20260505021003 46 232 1.0 3.0 0.00 0.00 0.00 66 1017.1
20260505020503 46 242 1.0 3.0 0.00 0.00 0.00 66 1017.1
20260505020004 45 251 0.0 3.0 0.00 0.00 0.00 65 1017.4
20260505015503 45 252 0.0 2.0 0.00 0.00 0.00 65 1017.3
20260505015003 45 246 0.0 2.0 0.00 0.00 0.00 65 1017.3
20260505014504 45 244 0.0 2.0 0.00 0.00 0.00 64 1017.3
20260505014003 45 231 0.0 2.0 0.00 0.00 0.00 64 1017.3
20260505013503 45 222 0.0 2.0 0.00 0.00 0.00 63 1017.4
20260505013004 46 222 0.0 3.0 0.00 0.00 0.00 63 1017.4
20260505012503 46 211 0.0 3.0 0.00 0.00 0.00 63 1017.5
20260505012004 46 184 0.0 3.0 0.00 0.00 0.00 63 1017.5
20260505011504 46 187 1.0 4.0 0.00 0.00 0.00 62 1017.4
20260505011004 46 208 2.0 4.0 0.00 0.00 0.00 62 1017.6
20260505010504 46 220 2.0 4.0 0.00 0.00 0.00 62 1017.2
20260505010004 46 225 1.0 4.0 0.00 0.00 0.00 62 1017.4
20260505005504 46 225 0.0 3.0 0.00 0.00 0.00 62 1017.3
20260505005004 47 225 0.0 3.0 0.00 0.00 0.00 61 1017.4
20260505004503 47 232 1.0 5.0 0.00 0.00 0.00 61 1017.4
20260505004003 47 232 1.0 5.0 0.00 0.00 0.00 61 1017.6
20260505003503 47 255 2.0 6.0 0.00 0.00 0.00 60 1017.3
20260505003003 47 261 1.0 6.0 0.00 0.00 0.00 60 1017.4
20260505002503 47 228 1.0 4.0 0.00 0.00 0.00 60 1017.4
20260505002003 47 229 1.0 4.0 0.00 0.00 0.00 60 1017.6
20260505001504 47 229 1.0 4.0 0.00 0.00 0.00 59 1017.4
20260505001003 48 225 2.0 4.0 0.00 0.00 0.00 59 1017.6
20260505000503 48 227 2.0 5.0 0.00 0.00 0.00 59 1017.7
20260505000004 48 231 2.0 5.0 0.00 0.00 0.00 59 1017.6
20260504235503 48 250 2.0 5.0 0.00 0.00 0.00 59 1017.4
20260504235003 48 266 2.0 5.0 0.00 0.00 0.00 59 1017.5
20260504234504 48 263 2.0 7.0 0.00 0.00 0.00 59 1017.4
20260504234004 48 268 1.0 7.0 0.00 0.00 0.00 59 1017.4
20260504233504 47 258 2.0 5.0 0.00 0.00 0.00 60 1017.5
20260504233004 47 249 2.0 6.0 0.00 0.00 0.00 60 1017.6
20260504232503 47 263 1.0 6.0 0.00 0.00 0.00 60 1017.6
20260504232003 47 277 0.0 3.0 0.00 0.00 0.00 59 1017.8
20260504231003 48 203 0.0 3.0 0.00 0.00 0.00 58 1017.8
20260504230503 48 184 0.0 2.0 0.00 0.00 0.00 58 1017.9
20260504230003 48 203 0.0 2.0 0.00 0.00 0.00 57 1017.8
20260504225503 49 230 0.0 3.0 0.00 0.00 0.00 56 1018.1
20260504225003 49 246 0.0 3.0 0.00 0.00 0.00 56 1017.8
20260504224504 49 270 0.0 4.0 0.00 0.00 0.00 55 1017.9
20260504224004 49 276 1.0 4.0 0.00 0.00 0.00 55 1017.7
20260504223503 50 269 1.0 4.0 0.00 0.00 0.00 55 1017.8
20260504222003 50 269 2.0 7.0 0.00 0.00 0.00 55 1018.1
20260504221504 49 264 2.0 7.0 0.00 0.00 0.00 56 1018.1
20260504221003 49 260 2.0 7.0 0.00 0.00 0.00 56 1018.0
20260504215503 48 276 1.0 4.0 0.00 0.00 0.00 56 1018.1
20260504214504 49 259 1.0 4.0 0.00 0.00 0.00 56 1018.1
20260504214003 49 240 1.0 4.0 0.00 0.00 0.00 56 1018.1
20260504213503 49 231 2.0 5.0 0.00 0.00 0.00 55 1018.2
20260504213004 49 230 2.0 5.0 0.00 0.00 0.00 55 1018.1
20260504212503 49 237 1.0 5.0 0.00 0.00 0.00 55 1018.0
20260504212003 50 257 2.0 5.0 0.00 0.00 0.00 54 1018.1
20260504211503 50 266 2.0 5.0 0.00 0.00 0.00 54 1018.1
20260504211002 50 255 2.0 5.0 0.00 0.00 0.00 54 1018.4
20260504210504 50 237 2.0 4.0 0.00 0.00 0.00 53 1018.4
20260504210004 50 228 1.0 4.0 0.00 0.00 0.00 52 1018.2
20260504204504 51 235 1.0 4.0 0.00 0.00 0.00 50 1018.5
20260504204003 51 238 1.0 4.0 0.00 0.00 0.00 51 1018.3
20260504203503 51 230 1.0 5.0 0.00 0.00 0.00 51 1018.1
20260504203004 51 225 2.0 5.0 0.00 0.00 0.00 51 1018.4
20260504202503 51 225 2.0 5.0 0.00 0.00 0.00 51 1018.4
20260504202003 51 225 1.0 5.0 0.00 0.00 0.00 51 1018.3
20260504201504 51 229 1.0 5.0 0.00 0.00 0.00 51 1018.5
20260504201003 51 231 1.0 5.0 0.00 0.00 0.00 51 1018.5
20260504200503 51 230 1.0 5.0 0.00 0.00 0.00 51 1018.4
20260504200004 51 230 0.0 4.0 0.00 0.00 0.00 50 1018.4